Tracking 18840 objects as of 17-November-2017
HD Live streaming from Space Station
objects crossing your sky now

DMSP 5D-2 F15 DEB

Track DMSP 5D-2 F15 DEB now!
10-day predictions


NORAD ID: 26146
Int'l Code: 1999-067D
Perigee: 654.5 km
Apogee: 664.6 km
Inclination: 98.8 °
Period: 97.8 minutes
Semi major axis: 7030 km
RCS: 0.1199 m2 (medium)
Launch date: December 12, 1999
Source: United States (US)
Launch site: AIR FORCE WESTERN TEST RANGE (AFWTR)

Note: This is SATELLITE DEBRIS
aabbcc
Your satellite tracking list
Your tracking list is empty




NASA's NSSDC Master Catalog

Two Line Element Set (TLE):
1 26146U 99067D   17321.21312706  .00003613  00000-0  57489-3 0  9995
2 26146  98.8393  25.2193 0007153 116.5573 275.5911 14.72721212938499
Source of the keplerian elements: AFSPC